カタログに戻る

STARLINK-34321

運用中通信VLEO
NORAD 64267·PAYLOAD·🇺🇸 United States

打ち上げ Jun 4, 2025 から Vandenberg Space Force Base

Loading…

次のパス (今後24時間)

TLE

最新Source: CelesTrak SupGP

元期: Sep 15, 2026, 03:34 UTC

1 64267C 25120M   26258.14909722  .00031510  00000+0  93076-3 0  2587
2 64267  53.1597 310.9026 0001224  87.8333 303.3546 15.34382556    16

AllMySatでSTARLINK-34321をリアルタイム追跡

Download on the App Store